Hourly Data Report for September 21, 2010

PETERBOROUGH AWOS
ONTARIO

44°14'00.000" N
78°22'00.000" W
191.40 m
6166420

Download Data

Hourly Data (September 2010)
Hourly Data Report for September 21, 2010
TIME
LST
Temp Definition
°C
Dew Point Definition
°C
Rel Hum Definition
%
Precip. Amount Definition
mm

Wind Dir Definition
10's deg

Wind Spd Definition
km/h
Visibility Definition
km
Stn Press Definition
kPa
Hmdx Definition


Wind Chill Definition


Weather Definition


00:00 5.2 4.9 98   LegendMM LegendMM 15.0 99.80      
01:00 4.5 4.3 99   LegendMM LegendMM 15.0 99.81      
02:00 4.1 4.1 100   LegendMM LegendMM 15.0 99.78      
03:00 4.0 3.8 99   LegendMM LegendMM 15.0 99.70      
04:00 3.1 3.0 99   LegendMM LegendMM 9.7 99.66      
05:00 5.0 4.8 99   LegendMM LegendMM 15.0 99.61      
06:00 6.1 6.1 100   LegendMM LegendMM 15.0 99.62      
07:00 8.2 8.0 99   LegendMM LegendMM 15.0 99.62     Rain
08:00 9.7 9.6 99   LegendMM LegendMM 9.7 99.55     Moderate Rain
09:00 12.1 11.3 95   LegendMM LegendMM 15.0 99.49      
10:00 13.4 11.6 89   LegendMM LegendMM 15.0 99.47     Rain
11:00 15.5 12.3 81   LegendMM LegendMM 15.0 99.29      
12:00 17.3 11.6 69   LegendMM LegendMM 15.0 99.19      
13:00 18.7 12.5 67   LegendMM LegendMM 15.0 99.10      
14:00 20.2 13.2 64   LegendMM LegendMM 15.0 98.97      
15:00 21.5 14.1 63   LegendMM LegendMM 15.0 98.85 25    
16:00 21.6 14.6 64   LegendMM LegendMM 15.0 98.73 25    
17:00 22.3 15.2 64   LegendMM LegendMM 15.0 98.69 26    
18:00 21.9 15.6 67   LegendMM LegendMM 15.0 98.66 26    
19:00 22.3 16.1 68   LegendMM LegendMM 15.0 98.65 27    
20:00 22.5 16.3 68   LegendMM LegendMM 15.0 98.69 27    
21:00 22.6 16.7 69   LegendMM LegendMM 15.0 98.89 28    
22:00 20.1 17.0 82   LegendMM LegendMM 15.0 98.82 25    
23:00 20.8 16.7 77   LegendMM LegendMM 15.0 98.92 26    

Notes on Data Quality.

Legend

  • E = Estimated
  • M = Missing
  • NA = Not Available*
  • [empty] = Indicates an unobserved value
Date modified: